EHI
0 0 0 0 0 0 0 0 0 0 0 0 0 0 0 0 0 0 0 0 0 0 0 0 0 0 0 0 0 0 0 0 0 0 0 0 0 0 0 0 0 0 0 0
0 0 0 0 0 0 0 0 0 0 0 0 0 0 0 0 0 0 0 0 0 0 0 0 0 0 0 0 0 0 0 0 0 0 0 0 0 0 0 0 0 0 0 0
0 0 0 0 0 0 0 0 0 0 0 0 0 0 0 0 0 0 0 0 0 0 0 0 0 0 0 0 0 0 0 0 0 0 0 0 0 0 0 0 0 0 0 0
0 0 0 0 0 0 0 0 0 0 0 0 0 0 0 0 0 0 0 0 0 0 0 0 0 0 0 0 0 0 0 0 0 0 0 0 0 0 0 0 0 0 0 0
0 0 0 0 0 0 0 0 0 0 0 0 0 0 0 0 0 0 0 0 0 0 0 0 0 0 0 0 0 0 0 0 0 0 0 0 0 0 0 0 0 0 0 0
0 0 0 0 0 0 0 0 0 0 0 0 0 0 0 0 0 0 0 0 0 0 0 0 0 0 0 0 0 0 0 0 0 0 0 0 0 0 0 0 0 0 0 0
0 0 0 0 0 0 0 0 0 0 0 0 0 0 0 0 0 0 0 0 0 0 0 0 0 0 0 0 0 0 0 0 0 0 0 0 0 0 0 0 0 0 0 0
0 0 0 0 0 0 0 0 0 0 0 0 0 0 0 0 0 0 0 0 0 0 0 0 0 0 0 0 0 0 0 0 0 0 0 0 0 0 0 0 0 0 0 0
0 0 0 0 0 0 0 0 0 0 0 0 0 0 0 0 0 0 0 0 0 0 0 0 0 0 0 0 0 0 0 0 0 0 0 0 0 0 0 0 0 0 0 0
0 0 0 0 0 0 0 0 0 0 0 0 0 0 0 0 0 0 0 0 0 0 0 0 0 0 0 0 0 0 0 0 0 0 0 0 0 0 0 0 0 0 0 0
0 0 0 0 0 0 0 0 0 0 0 0 0 0 0 0 0 0 0 0 0 0 0 0 0 0 0 0 0 0 0 0 0 0 0 0 0 0 0 0 0 0 0 0
0 0 0 0 0 0 0 0 0 0 0 0 0 0 0 0 0 0 0 0 0 0 0 0 0 0 0 0 0 0 0 0 0 0 0 0 0 0 0 0 0 0 0 0
0 0 0 0 0 0 0 0 0 0 0 0 0 0 0 0 0 0 0 0 0 0 0 0 0 0 0 0 0 0 0 0 0 0 0 0 0 0 0 0 0 0 0 0
0 0 0 0 0 0 0 0 0 0 0 0 0 0 0 0 0 0 0 0 0 0 0 0 0 0 0 0 0 0 0 0 0 0 0 0 0 0 0 0 0 0 0 0
0 0 0 0 0 0 0 0 0 0 0 0 0 0 0 0 0 0 0 0 0 0 0 0 0 0 0 0 0 0 0 0 0 0 0 0 0 0 0 0 0 0 0 0
0 0 0 0 0 0 0 0 0 0 0 0 0 0 0 0 0 0 0 0 0 0 0 0 0 0 0 0 0 0 0 0 0 0 0 0 0 0 0 0 0 0 0 0
0 0 0 0 0 0 0 0 0 0 0 0 0 0 0 0 0 0 0 0 0 0 0 0 0 0 0 0 0 0 0 0 0 0 0 0 0 0 0 0 0 0 0 0
0 0 0 0 0 0 0 0 0 0 0 0 0 0 0 0 0 0 0 0 0 0 0 0 0 0 0 0 0 0 0 0 0 0 0 0 0 0 0 0 0 0 0 0
0 0 0 0 0 0 0 0 0 0 0 0 0 0 0 0 0 0 0 0 0 0 0 0 0 0 0 0 0 0 0 0 0 0 0 0 0 0 0 0 0 0 0 0
0 0 0 0 0 0 0 0 0 0 0 0 0 0 0 0 0 0 0 0 0 0 0 0 0 0 0 0 0 0 0 0 0 0 0 0 0 0 0 0 0 0 0 0
0 0 0 0 0 0 0 0 0 0 0 0 0 0 0 0 0 0 0 0 0 0 0 0 0 0 0 0 0 0 0 0 0 0 0 0 0 0 0 0 0 0 0 0
0 0 0 0 0 0 0 0 0 0 0 0 0 0 0 0 0 0 0 0 0 0 0 0 0 0 0 0 0 0 0 0 0 0 0 0 0 0 0 0 0 0 0 0
0 0 0 0 0 0 0 0 0 0 0 0 0 0 0 0 0 0 0 0 0 0 0 0 0 0 0 0 0 0 0 0 0 0 0 0 0 0 0 0 0 0 0 0
0 0 0 0 0 0 0 0 0 0 0 0 0 0 0 0 0 0 0 0 0 0 0 0 0 0 0 0 0 0 0 0 0 0 0 0 0 0 0 0 0 0 0 0
0 0 0 0 0 0 0 0 0 0 0 0 0 0 0 0 0 0 0 0 0 0 0 0 0 0 0 0 0 0 0 0 0 0 0 0 0 0 0 0 0 0 0 0
0 0 0 0 0 0 0 0 0 0 0 0 0 0 0 0 0 0 0 0 0 0 0 0 0 0 0 0 0 0 0 0 0 0 0 0 0 0 0 0 0 0 0 0
0 0 0 0 0 0 0 0 0 0 0 0 0 0 0 0 0 0 0 0 0 0 0 0 0 0 0 0 0 0 0 0 0 0 0 0 0 0 0 0 0 0 0 0
Wind_Speed
7 7 6 7 7 6 8 8 8 7 5 5 2 2 2 1 1 1 1 2 2 2 2 2 2 2 2 2 1 0 1 1 1 1 2 2 3 4 3 3 3 4 3 3
6 7 7 10 9 9 9 9 10 9 9 3 1 1 1 1 0 1 2 2 2 2 2 3 2 2 2 2 1 1 1 1 1 2 2 2 3 3 3 3 3 3 3 3
5 3 5 8 6 7 5 5 6 8 6 1 2 3 2 1 1 2 2 2 3 2 2 2 2 1 2 1 1 1 1 1 2 2 2 2 2 3 3 3 3 3 3 3
3 3 7 6 1 2 4 5 5 5 4 2 3 3 2 1 1 1 2 2 3 2 2 2 2 2 1 1 0 1 1 1 1 2 2 2 2 2 3 3 3 3 3 3
3 4 7 4 1 1 2 5 4 5 4 2 1 3 2 1 1 1 2 2 2 2 2 1 1 1 1 1 0 1 1 1 1 2 2 2 2 2 2 2 3 3 3 3
3 4 6 4 1 1 1 5 2 2 3 1 2 2 3 2 2 2 2 2 2 2 2 1 1 1 0 0 1 1 1 1 1 2 2 2 2 2 2 2 2 2 2 3
5 5 6 3 1 1 2 5 3 2 2 1 2 3 2 1 2 2 2 2 2 2 2 1 1 1 1 1 1 1 1 1 1 2 2 2 2 2 2 2 2 2 2 2
4 5 8 1 3 4 4 2 2 2 1 1 2 2 1 1 2 2 2 2 2 2 2 2 1 2 2 2 2 2 2 2 2 2 2 2 3 2 3 3 3 2 2 2
6 7 2 4 4 3 1 2 3 2 2 1 1 1 1 1 1 2 2 2 1 1 1 2 2 2 2 1 2 2 2 3 2 2 2 2 2 2 2 2 2 2 2 2
4 5 3 3 2 2 1 2 2 2 1 1 1 1 1 1 1 1 2 1 1 2 1 1 2 2 2 2 2 2 3 2 2 3 2 2 2 2 2 2 2 2 2 2
5 5 3 2 3 3 2 1 2 2 1 1 1 1 1 1 1 1 1 1 1 1 1 1 2 2 2 2 2 3 2 2 2 2 2 2 2 2 1 1 2 2 2 2
6 4 3 3 1 1 1 2 1 1 1 1 1 1 0 0 1 0 0 1 1 1 1 2 2 2 2 2 2 2 2 2 2 2 2 2 2 2 3 3 3 2 1 1
5 3 3 3 2 1 1 2 1 1 1 1 0 1 1 0 0 0 1 1 1 1 1 1 2 2 2 2 2 2 2 2 2 2 2 2 2 2 2 3 3 3 3 2
2 1 3 2 1 1 1 1 1 1 1 1 1 1 1 1 1 0 0 0 1 1 1 1 2 1 2 2 2 2 2 2 2 2 2 2 2 2 1 1 1 1 2 2
2 2 2 1 1 1 1 1 1 1 1 1 1 1 1 1 0 0 0 1 1 2 1 2 2 1 1 1 2 1 1 1 2 2 1 1 1 1 1 1 1 1 1 2
2 1 1 1 1 1 0 0 1 1 0 0 0 0 1 1 1 1 1 2 2 1 1 1 1 1 1 1 1 1 1 2 2 2 1 1 1 1 1 1 1 1 1 1
1 2 2 2 2 2 2 1 2 1 1 1 1 1 1 1 1 1 1 1 1 1 1 1 1 1 1 1 1 1 1 1 2 1 1 1 1 1 1 1 1 1 1 1
2 2 2 2 2 2 2 1 1 1 2 1 1 1 1 2 1 1 1 1 2 2 2 1 1 1 1 1 1 1 1 1 1 1 1 1 1 1 1 1 1 1 1 1
1 1 1 0 1 1 1 1 1 1 1 2 2 2 1 1 1 1 1 2 1 1 1 1 1 2 2 1 2 1 1 1 1 1 1 0 1 1 1 1 0 0 1 1
1 0 0 0 1 0 1 1 1 1 1 2 2 2 1 1 1 2 2 1 1 1 0 1 1 1 1 1 2 1 1 1 1 1 1 1 1 0 0 0 0 0 1 1
1 1 1 0 0 0 0 1 1 2 1 2 2 2 1 1 1 2 2 1 0 1 1 1 1 0 1 1 1 1 1 1 1 1 0 0 0 0 0 0 1 1 1 1
0 0 0 0 0 0 0 0 1 2 2 1 1 1 1 1 1 1 1 1 1 1 1 1 0 0 1 2 1 1 1 1 0 0 0 0 0 1 1 1 1 1 1 2
0 0 0 1 1 1 0 0 1 2 2 2 2 2 2 1 1 1 1 0 1 1 1 1 0 0 1 2 1 1 1 1 0 0 0 1 1 1 1 1 2 2 2 2
0 0 1 1 1 1 1 0 1 1 1 1 2 2 2 1 0 0 0 1 1 1 1 0 0 1 2 1 1 1 0 0 1 1 1 1 1 1 1 2 2 2 2 3
0 1 1 1 1 1 1 1 1 1 1 1 1 1 1 1 1 1 1 1 1 1 1 0 1 2 2 1 0 0 0 1 1 1 1 1 1 1 2 2 2 3 3 3
0 1 1 1 1 1 1 1 1 1 1 1 1 1 1 1 1 1 1 1 1 1 1 1 1 1 1 0 0 0 1 1 2 1 1 1 2 2 2 3 4 3 3 4
0 0 0 0 0 0 1 1 1 1 1 1 1 1 1 1 1 2 1 1 1 1 1 1 0 0 0 0 1 1 1 1 1 1 2 2 2 2 3 4 4 4 4 4
Wind_Direction
270 282 278 269 256 229 220 228 238 259 265 267 271 263 269 277 316 13 357 345 340 328 325 324 322 319 313 320 332 137 123 135 144 129 126 134 143 146 147 151 158 160 162 160
276 261 260 268 259 240 238 238 247 266 274 282 296 313 307 298 321 309 313 325 325 326 324 315 320 323 316 317 313 118 118 115 115 112 119 130 140 144 145 152 155 156 158 160
271 286 300 265 246 224 228 227 221 239 249 320 315 300 274 265 262 278 301 312 310 304 302 311 309 309 291 306 331 93 97 96 102 112 124 134 134 140 153 157 155 160 160 160
273 301 250 243 191 184 215 251 234 243 265 271 268 290 278 242 239 310 317 314 315 318 321 329 338 336 328 340 70 108 110 110 109 110 120 130 136 144 156 158 161 164 160 157
245 255 266 260 223 175 206 274 253 249 273 298 341 328 289 16 26 322 320 320 316 319 316 323 328 322 353 356 87 108 130 133 130 138 139 139 141 146 148 144 153 158 155 154
240 248 250 259 355 348 122 274 301 253 266 311 14 293 275 348 354 350 2 360 356 354 360 1 342 2 95 222 120 125 122 114 118 134 140 143 141 138 130 132 140 148 147 148
234 246 262 264 250 98 189 257 325 291 267 210 227 249 287 349 358 11 14 14 20 18 15 11 19 46 92 75 71 70 68 76 86 98 118 127 122 122 125 126 117 129 133 139
210 229 252 161 131 188 233 301 318 308 285 237 272 331 355 10 11 13 12 13 18 33 25 19 30 61 66 47 41 61 74 83 86 91 98 106 115 116 117 123 123 119 122 124
204 220 229 166 191 229 263 280 291 292 299 243 277 295 310 328 347 357 2 357 21 58 43 23 31 64 69 36 50 66 72 79 86 83 83 93 111 115 114 118 120 119 118 123
258 259 249 219 239 274 277 271 293 299 290 208 247 255 294 313 337 347 345 355 47 77 68 33 30 42 53 52 66 78 77 76 81 88 85 81 83 98 116 127 127 125 129 130
250 275 298 265 246 260 285 313 324 330 324 222 202 228 243 286 302 310 335 8 55 76 64 37 35 39 48 58 72 76 77 80 81 84 89 90 84 85 92 110 138 140 146 145
236 240 241 269 305 321 294 285 283 301 326 325 213 214 202 255 278 284 343 26 45 50 50 40 43 41 41 50 74 86 81 80 84 87 87 89 89 71 66 81 89 90 107 143
241 273 262 273 307 346 294 290 298 261 246 273 357 129 127 150 289 37 61 55 67 71 70 68 62 47 39 51 69 84 85 81 85 80 81 88 88 88 75 62 67 66 60 57
256 291 280 280 284 319 312 353 36 31 42 74 82 81 86 73 70 86 90 68 73 75 80 87 80 53 36 58 71 78 85 81 79 85 77 77 84 88 93 92 71 46 39 41
283 248 248 297 334 350 44 68 66 62 61 45 64 92 103 113 137 272 78 88 87 81 78 83 79 51 50 76 75 82 94 98 95 91 83 77 81 84 88 89 80 54 37 37
289 282 258 275 278 284 95 153 184 210 170 133 104 97 99 115 99 81 90 101 105 105 93 88 75 53 78 93 94 95 101 81 82 93 94 91 92 93 93 92 80 65 46 30
254 266 259 270 266 254 225 218 204 200 202 201 197 149 109 97 80 73 73 70 85 103 107 103 76 64 87 104 115 106 104 104 85 77 88 93 94 102 102 95 79 57 37 346
224 230 224 232 241 242 242 228 201 193 202 199 161 143 146 148 158 156 102 77 68 59 49 45 61 85 96 106 111 104 97 95 99 102 89 78 77 86 87 82 71 39 7 345
254 247 244 239 218 209 217 218 214 198 174 155 156 171 181 175 158 135 110 104 104 87 356 31 66 78 84 101 93 101 100 98 94 91 94 94 52 69 76 74 52 1 337 338
347 20 66 55 63 145 197 198 176 167 162 156 156 152 148 155 148 135 125 134 172 194 141 99 97 94 100 123 98 102 115 116 120 120 121 128 126 116 109 80 314 295 301 303
344 12 45 73 39 26 200 185 167 168 166 159 163 171 173 174 151 143 137 132 3 85 106 97 88 110 156 127 113 109 125 126 131 141 142 149 163 171 214 259 279 285 282 286
313 286 228 161 155 282 281 188 165 161 157 151 148 140 131 127 123 122 139 165 159 126 86 96 91 154 121 100 98 107 112 117 121 117 148 200 218 238 254 261 264 273 274 272
269 237 202 181 189 209 341 124 154 161 164 165 160 159 158 161 155 148 151 136 114 117 80 101 178 81 69 81 92 105 108 115 138 195 225 234 240 245 253 262 263 264 264 266
192 198 203 169 137 135 151 176 154 157 160 163 160 159 154 145 117 97 126 157 131 74 73 110 337 7 58 80 94 110 137 183 210 225 238 247 250 251 254 260 266 268 265 265
186 187 162 151 161 182 178 147 128 131 127 127 123 127 144 161 169 160 102 119 148 80 57 0 0 21 47 67 93 127 218 236 239 234 229 247 255 258 259 259 259 264 265 264
161 189 199 208 202 176 156 148 146 147 143 137 122 125 125 117 120 123 118 110 129 83 62 41 12 9 40 43 353 303 291 302 319 318 285 274 266 266 268 270 269 268 268 269
58 95 103 67 44 123 147 151 155 168 169 161 147 131 120 115 113 111 108 104 91 75 67 46 34 38 35 7 335 320 311 303 294 285 282 277 274 270 271 270 272 273 273 272